Regional Weather Roundup
Issued by NWS

Home | Current Version | Previous Version | Text Only | Print | Product List | Glossary Off
Versions: 1 2 3 4 5 6 7 8 9 10 11 12 13 14 15 16 17 18 19 20 21 22 23 24 25 26 27 28 29 30 31 32 33 34 35 36 37 38 39 40 41 42 43 44 45 46 47 48 49 50

000
ASUS43 KLOT 221903
RWRIL

ILLINOIS REGIONAL WEATHER ROUNDUP
NATIONAL WEATHER SERVICE CHICAGO/ROMEOVILLE IL
100 PM CST WED FEB 22 2017

NOTE: "FAIR" INDICATES FEW OR NO CLOUDS BELOW 12,000 FEET WITH NO
SIGNIFICANT WEATHER AND/OR OBSTRUCTIONS TO VISIBILITY.

* THESE STATIONS ARE NOT UNDER NWS QUALITY CONTROL. THEY ALSO MAY NOT
  REPORT WEATHER SUCH AS PRECIPITATION OR FOG.

ILZ001-002-007-009-015-016-024-222000-
NORTHWEST ILLINOIS

CITY           SKY/WX    TMP DP  RH WIND       PRES   REMARKS
MOLINE         SUNNY     72  52  49 SW15G23   29.64F
STERLING*      SUNNY     67  56  67 VRB7      29.67F
SAVANNA*       SUNNY     69  51  52 S13       29.63F
$$

ILZ003-004-008-010-011-017-018-222000-
NORTH CENTRAL ILLINOIS

CITY           SKY/WX    TMP DP  RH WIND       PRES   REMARKS
ROCKFORD       MOSUNNY   67  53  61 S15       29.68F
FREEPORT*      SUNNY     65  52  63 S20G26    29.66F
ROCHELLE*      SUNNY     65  55  69 SW17      29.69F
DE KALB*       SUNNY     65  55  70 SW20G25   29.70F
PERU*          MOSUNNY   65  54  68 SW17      29.71F
$$

ILZ005-006-012>014-019>023-222000-
NORTHEAST ILLINOIS

CITY           SKY/WX    TMP DP  RH WIND       PRES   REMARKS
CHICAGO-OHARE  MOSUNNY   64  53  67 SW12G20   29.70F
CHICAGO-MIDWAY MOSUNNY   61  53  75 S14       29.72F
AURORA         MOSUNNY   63  54  72 S15       29.72F
LANSING*       CLOUDY    59  57  92 S14       29.75F FOG
JOLIET*        CLOUDY    60  57  89 S13       29.73F
WAUKEGAN       SUNNY     66  53  63 SW20      29.67F
DUPAGE AIRPORT MOSUNNY   64  53  67 SW14      29.70F
KANKAKEE*      CLOUDY    62  58  85 SW13      29.76F
WHEELING       SUNNY     63  52  67 SW15G24   29.70F
MORRIS*        MOSUNNY   62  56  83 S14       29.72F
ROMEOVILLE*    PTSUNNY   60  58  91 SW13      29.73F
NORTHERLY ISL    N/A     60  52  74 S13         N/A
$$

LMZ740>746-222000-
SOUTHERN LAKE MICHIGAN

STATION/POSITION SKY/WX   TEMP    WIND        PRES    VSBY  WAVE
                          AIR SEA DIR/SP/G                  HT/PER
                          (F)     (DEG/KT/KT) (MB)    (MI)  (FT/S)
HARRISON CRIB              57     190/ 18/ 19   N/A
BURNHAM HARBOR             60     190/ 16       N/A
CALUMET HARBOR             57     200/ 11/ 20 1006.6F
BURNS HARBOR               59     210/ 13/ 19 1007.8F
MICHIGAN CITY              59     180/ 12/ 14   N/A
$$

ILZ025>027-034>036-040-047-049-050-058-095>099-222000-
WEST-CENTRAL ILLINOIS

CITY           SKY/WX    TMP DP  RH WIND       PRES   REMARKS
QUINCY         MOSUNNY   67  57  70 S17G23    29.72F
GALESBURG*     MOSUNNY   66  57  72 S14       29.69F
MACOMB*        SUNNY     64  61  88 S15G21    29.73F
JACKSONVILLE*  CLOUDY    58  56  91 S10       29.76F
PITTSFIELD*    PTSUNNY   62  58  86 S13       29.76F
$$

ILZ028>032-037-038-041>044-048-051>054-059>061-222000-
CENTRAL ILLINOIS

CITY           SKY/WX    TMP DP  RH WIND       PRES   REMARKS
PONTIAC        CLOUDY    60  59  98 SW13      29.75F FOG
BLOOMINGTON    CLOUDY    61  56  83 SW12      29.76F HAZE
DECATUR        MOSUNNY   66  56  70 S18       29.76F
PEORIA         CLOUDY    60  56  86 S12       29.73F
LACON*         PTSUNNY   63  55  77 S13       29.71F
LINCOLN*       MOSUNNY   66  59  78 SW7       29.75F
SPRINGFIELD    CLOUDY    60  55  83 S12       29.76F HAZE
TAYLORVILLE    CLOUDY    61  56  85 SW10      29.77F HAZE
$$

ILZ033-039-045-046-055>057-062-063-222000-
EAST-CENTRAL ILLINOIS

CITY           SKY/WX    TMP DP  RH WIND       PRES   REMARKS
CHAMPAIGN      MOSUNNY   68  55  63 SW14      29.77F
RANTOUL*       MOSUNNY   69  57  66 SW12      29.76F
MATTOON        PTSUNNY   65  57  75 S14G20    29.78F
PARIS*         CLOUDY    63  57  80 S9        29.80F
$$

ILZ079-100>102-222000-
SOUTHWEST ILLINOIS

CITY           SKY/WX    TMP DP  RH WIND       PRES   REMARKS
ALTON          PTSUNNY   61  55  82 SW7       29.79F
BELLEVILLE     MOSUNNY   70  58  65 VRB5      29.77F
CAHOKIA*       CLOUDY    70  55  59 S6        29.77F
SPARTA*        MOSUNNY   71  56  60 S13G18    29.80F
$$

ILZ064>066-069>071-074>076-080>082-084>086-088>090-092>094-222000-
SOUTH-CENTRAL ILLINOIS

CITY           SKY/WX    TMP DP  RH WIND       PRES   REMARKS
CARBONDALE     SUNNY     71  56  58 S14G24    29.80F
CAIRO*         PTSUNNY   67  57  71 SE7       29.84F
EFFINGHAM*     PTSUNNY   70  59  66 S8        29.79F
MARION         MOSUNNY   72  57  60 SW12      29.83F
MT. VERNON     MOSUNNY   71  57  61 S10G18    29.80F
CENTRALIA*     SUNNY     73  59  61 SW14      29.78F
SALEM*         MOSUNNY   73  56  57 S14       29.79F
METROPOLIS*    MOSUNNY   69  57  66 S3        29.85F
$$

ILZ067-068-072-073-078-083-087-091-222000-
SOUTHEAST ILLINOIS

CITY           SKY/WX    TMP DP  RH WIND       PRES   REMARKS
LAWRENCEVILLE  PTSUNNY   67  58  72 S9        29.81F
FLORA*         MOSUNNY   71  59  66 S12       29.81F
FAIRFIELD*     PTSUNNY   68  57  68 S10       29.80F
HARRISBURG*    MOSUNNY   71  60  68 S7        29.83F
ROBINSON*      MOSUNNY   68  57  68 SW10G17   29.81F
CARMI*         MOSUNNY   67  58  71 S8        29.82F
$$

ABBREVIATIONS USED IN REMARKS
   TC - TEMPERATURE IN CELSIUS
  WCI - WIND CHILL INDEX
   HX - HEAT INDEX
  VSB - VISIBILITY
$$




USA.gov is the U.S. government's official web portal to all federal, state and local government web resources and services.